This is the latest recevied weather packets stored in our database for station/object OZ0AJ-13. If no packets are shown the sender has not sent any weather packets the latest 10 day(s).
| Time | Temp. | Humidity | Pressure | Rain* | Wind** | Luminosity | Snow |
|---|---|---|---|---|---|---|---|
| 1777710035 | 17.22° C | 57% | 1016.5 hPa | 0 mm | - | - | - |
| 1777709431 | 17.22° C | 58% | 1016.8 hPa | 0 mm | - | - | - |
| 1777708827 | 17.22° C | 59% | 1016.8 hPa | 0 mm | - | - | - |
| 1777708223 | 16.67° C | 60% | 1016.6 hPa | 0 mm | - | - | - |
| 1777707619 | 16.67° C | 62% | 1016.8 hPa | 0 mm | - | - | - |
| 1777707035 | 16.11° C | 60% | 1016.8 hPa | 0 mm | - | - | - |
| 1777706431 | 16.11° C | 62% | 1016.8 hPa | 0 mm | - | - | - |
| 1777705828 | 15.56° C | 65% | 1016.8 hPa | 0 mm | - | - | - |
| 1777705224 | 15° C | 67% | 1017 hPa | 0 mm | - | - | - |
| 1777704620 | 15° C | 70% | 1017.1 hPa | 0 mm | - | - | - |
| 1777704016 | 14.44° C | 72% | 1017.1 hPa | 0 mm | - | - | - |
| 1777703432 | 14.44° C | 74% | 1017 hPa | 0 mm | - | - | - |
| 1777702828 | 13.89° C | 76% | 1017.1 hPa | 0 mm | - | - | - |
| 1777702224 | 13.89° C | 77% | 1017.2 hPa | 0 mm | - | - | - |
| 1777701620 | 13.33° C | 79% | 1017.3 hPa | 0 mm | - | - | - |
| 1777701016 | 13.33° C | 80% | 1017.1 hPa | 0 mm | - | - | - |
| 1777700433 | 13.33° C | 80% | 1017.1 hPa | 0 mm | - | - | - |
| 1777699829 | 12.78° C | 81% | 1017.1 hPa | 0 mm | - | - | - |
| 1777699224 | 12.78° C | 81% | 1017.1 hPa | 0 mm | - | - | - |
| 1777698620 | 12.78° C | 82% | 1017.3 hPa | 0 mm | - | - | - |
| 1777698016 | 12.78° C | 82% | 1017.1 hPa | 0 mm | - | - | - |
| 1777697433 | 12.78° C | 82% | 1017.2 hPa | 0 mm | - | - | - |
| 1777696829 | 12.22° C | 82% | 1017.2 hPa | 0 mm | - | - | - |
| 1777696225 | 12.22° C | 81% | 1017.2 hPa | 0 mm | - | - | - |
| 1777695621 | 12.22° C | 81% | 1017.3 hPa | 0 mm | - | - | - |
* Rain latest hour (hover to see other rain measurements)
** Current wind speed in m/s (hover to see current wind gust speed)